RH
49 48 54 60 58 65 66 67 73 75 74 79 87 90 96 96 91 91 91 94 92 93 96 95 95 94 93 93 95 95 92 93
51 47 50 52 52 60 60 61 68 72 77 77 77 83 89 90 95 93 92 94 94 95 96 96 96 95 94 94 95 94 92 92
56 49 48 51 47 54 61 62 60 65 81 80 79 82 89 88 91 97 94 94 95 97 97 97 97 96 95 94 96 93 90 94
41 48 47 52 44 52 56 55 65 74 90 86 92 88 85 85 88 92 97 96 96 97 97 97 98 98 98 96 97 89 93 93
42 50 46 49 49 51 55 52 57 66 88 94 91 92 91 91 94 94 94 92 97 98 98 97 97 99 98 98 92 94 97 94
45 54 46 43 50 55 56 50 54 57 69 80 89 94 95 94 95 93 95 96 93 98 97 95 97 97 93 87 86 87 97 97
48 53 47 41 52 45 55 54 59 59 61 69 84 89 92 92 96 95 94 95 97 96 98 95 95 93 90 81 81 80 93 92
47 50 51 45 59 44 51 63 65 62 64 68 73 80 88 90 93 95 96 96 97 98 99 98 95 93 90 87 76 78 93 91
44 39 47 46 64 42 51 51 57 63 68 72 70 73 79 88 92 94 94 96 95 97 98 97 99 95 93 88 85 81 93 94
42 42 45 43 63 43 54 53 50 64 70 73 69 69 66 79 88 92 92 95 97 97 97 99 99 98 97 95 79 89 93 92
43 48 47 52 56 47 58 56 50 60 70 66 65 67 66 65 80 87 90 92 93 96 95 96 99 98 97 95 96 94 93 85
45 46 50 54 54 51 58 52 55 56 55 63 63 64 59 62 72 85 87 90 91 94 95 93 96 96 90 94 97 93 96 95
47 47 50 55 51 52 56 58 66 58 58 63 62 66 57 58 67 75 86 91 90 92 95 95 95 95 98 96 97 96 91 96
48 47 48 51 54 54 57 58 66 60 62 67 66 68 68 58 63 69 83 88 88 90 93 96 95 95 97 98 97 89 90 92
48 49 48 53 57 58 59 58 70 67 62 67 66 62 66 67 70 67 76 84 91 91 91 94 97 94 95 98 98 92 88 98
51 48 48 47 56 63 68 67 79 76 68 61 61 57 59 69 68 73 75 81 87 90 87 92 94 96 94 94 97 96 92 98
57 49 49 54 57 63 64 78 78 77 74 68 64 56 56 66 60 71 78 78 80 87 90 91 92 96 95 95 95 98 94 98
57 50 49 54 58 63 62 80 72 77 73 74 62 60 58 57 64 62 76 79 80 85 87 89 91 93 94 92 94 96 95 94
50 52 52 55 60 63 69 73 77 79 78 64 63 62 62 73 68 68 73 79 75 80 86 88 90 93 94 94 92 92 94 95
61 56 56 57 63 64 76 73 79 77 81 73 68 65 65 67 72 67 75 76 74 69 81 84 89 94 92 93 94 93 94 95
Wind_Speed
14 17 22 26 25 25 25 24 22 23 26 28 27 24 25 15 11 11 10 10 10 10 10 12 12 13 12 10 7 7 4 2
13 17 17 16 15 26 27 24 23 24 23 27 25 23 25 24 20 12 12 11 10 10 11 12 14 13 13 10 8 4 2 5
7 15 17 15 16 16 20 22 22 21 16 23 19 11 14 19 23 21 12 12 12 11 11 13 13 13 13 11 6 3 5 7
10 13 16 14 12 14 13 14 11 10 6 12 9 10 13 16 19 23 25 12 13 13 13 12 10 5 5 7 3 4 4 4
10 10 14 14 12 9 7 9 10 10 9 8 9 10 10 9 9 10 10 18 5 7 7 6 9 5 5 4 5 5 2 3
10 8 13 14 8 8 6 8 9 10 11 18 12 9 13 9 8 10 10 8 13 7 5 7 7 8 7 7 6 5 4 4
9 8 12 13 9 10 8 7 6 9 10 13 11 11 11 12 9 9 9 10 10 9 7 7 7 8 7 7 7 7 8 7
8 8 10 12 7 13 9 5 5 5 7 9 13 11 10 10 8 11 9 9 10 11 5 6 7 7 8 7 8 7 8 7
9 12 10 13 8 13 8 8 8 5 4 7 12 12 13 12 10 10 11 11 14 11 6 1 2 4 7 8 6 8 5 9
8 8 10 12 8 11 7 8 10 5 4 6 10 13 16 12 10 10 12 11 9 10 13 2 2 1 3 4 7 6 7 8
7 8 10 9 8 10 8 10 10 8 5 8 11 12 14 13 10 10 12 11 12 12 9 11 4 3 3 3 4 6 8 6
7 7 8 7 6 7 6 9 8 9 9 9 13 11 15 14 11 12 12 10 10 12 13 11 9 3 3 6 3 5 4 7
7 8 8 5 6 9 9 10 5 8 9 13 16 12 15 14 12 13 12 11 12 12 11 12 10 5 3 4 6 5 8 4
7 7 8 5 4 4 6 8 3 6 8 9 13 15 15 12 12 14 13 11 11 12 13 10 6 9 5 2 4 5 5 12
6 6 6 5 6 3 5 6 3 6 9 7 10 14 14 15 14 12 12 11 11 11 11 12 9 10 12 3 4 7 4 4
5 5 6 6 6 5 6 6 4 4 6 8 9 14 14 14 14 13 10 9 11 11 9 10 8 10 10 4 8 1 6 3
3 5 6 6 6 6 6 5 3 3 6 10 10 12 13 11 15 13 11 8 10 12 11 9 8 7 7 8 9 6 12 8
4 6 5 6 6 7 8 7 8 7 8 7 10 10 10 12 13 13 10 9 10 10 12 10 10 9 8 7 8 7 6 9
4 6 6 7 7 7 9 7 7 7 8 9 11 10 10 9 11 12 9 10 10 10 11 12 10 9 10 8 8 9 10 5
6 7 7 7 7 7 5 5 2 2 4 6 6 7 8 11 10 11 10 11 10 12 9 10 11 9 11 8 8 9 8 8
Wind_Direction
18 12 7 1 357 3 5 5 11 12 9 4 359 360 0 315 224 214 209 208 200 197 184 173 196 196 211 207 185 212 155 134
22 14 8 3 6 2 360 4 7 5 10 5 1 3 0 346 328 222 211 199 196 202 189 186 200 201 209 211 183 183 167 111
21 16 8 5 7 358 354 1 2 357 3 11 354 3 1 350 337 337 217 203 198 193 200 192 202 205 209 213 165 176 174 162
21 20 10 359 4 360 1 359 347 339 339 19 353 354 12 356 340 343 353 230 205 190 192 210 188 212 221 222 178 191 198 178
10 21 14 3 359 358 360 2 356 347 351 354 356 351 8 0 349 337 339 334 214 206 192 205 191 190 216 195 184 188 180 182
2 16 13 4 354 352 351 4 4 2 6 23 8 356 16 343 354 340 326 334 314 194 198 194 208 197 203 206 210 182 160 118
358 12 12 360 354 358 343 360 5 3 17 19 15 7 1 344 355 326 338 341 309 290 193 194 207 205 202 206 206 207 160 156
0 12 2 354 352 359 346 337 344 1 24 18 20 11 360 349 339 331 339 336 314 309 246 186 205 208 211 207 207 231 161 188
7 17 3 352 356 357 347 343 348 352 25 25 20 15 3 348 346 341 343 325 320 317 285 294 249 217 214 218 201 219 175 155
11 13 3 356 6 351 350 351 342 327 26 40 22 17 7 354 348 347 341 333 351 330 344 326 300 295 263 235 221 197 189 186
18 11 2 0 2 352 343 344 343 337 22 27 11 10 8 1 355 345 343 341 343 357 331 318 231 228 284 269 253 221 176 183
28 13 0 9 359 2 350 346 345 12 1 19 16 359 358 359 1 349 346 345 346 340 346 330 309 211 264 274 248 285 201 176
25 16 1 20 2 5 355 342 352 11 3 20 5 348 354 356 359 354 346 344 347 346 339 337 316 314 199 240 244 233 266 221
21 15 4 15 6 359 351 336 3 2 3 13 357 352 345 349 356 354 348 342 345 353 348 347 304 351 274 169 251 262 223 210
31 13 360 25 2 353 350 339 354 358 360 3 357 351 343 348 357 350 351 347 343 345 351 346 328 322 313 284 187 229 291 185
37 9 7 22 1 11 355 350 4 355 342 350 351 350 351 351 349 340 348 347 343 336 345 336 330 323 320 329 295 233 211 212
43 16 20 18 8 15 360 14 3 351 7 352 341 348 349 344 348 337 338 347 341 336 331 337 327 312 313 306 315 264 233 233
38 24 16 21 10 8 358 37 20 16 354 347 346 344 345 349 343 343 335 340 339 338 331 322 322 310 301 306 290 291 244 212
31 24 22 18 12 1 45 44 31 5 340 344 345 343 340 339 341 338 337 332 333 333 335 329 321 316 310 296 295 288 302 266
36 29 25 18 10 2 74 57 45 322 298 325 333 335 333 327 331 332 326 328 332 341 333 331 325 311 312 304 288 279 272 278